Monterey, CA

9:15 PM PDT on September 23, 2017 (GMT -0700)
Monterey Peninsula

Weather History for KMRY - July, 2014

Change the Weather History Date:

Tuesday, July 22, 2014

  Actual Average Record
Temperature  
Mean Temperature 66 °F 60 °F  
Max Temperature 73 °F 67 °F 86 °F (2006)
Min Temperature 58 °F 54 °F 49 °F (2002)
Degree Days  
Heating Degree Days 0    
Month to date heating degree days 56  
Since 1 June heating degree days 168  
Since 1 July heating degree days 56  
Cooling Degree Days 1    
Month to date cooling degree days 10  
Year to date cooling degree days 53  
Since 1 June cooling degree days 11  
Growing Degree Days 16 (Base 50)    
Moisture  
Dew Point 56 °F    
Average Humidity 70    
Maximum Humidity 90    
Minimum Humidity 49    
Precipitation  
Precipitation 0.00 in - 0.03 in (1999)
Month to date precipitation 0.01  
Year to date precipitation 7.40  
Since 1 July precipitation 0.01  
Sea Level Pressure  
Sea Level Pressure 30.12 in    
Wind  
Wind Speed 7 mph (SW)    
Max Wind Speed 20 mph    
Max Gust Speed 26 mph    
Visibility 10 miles    
Events      
T = Trace of Precipitation, MM = Missing Value Source: NWS Daily Summary

Daily Weather History Graph

Daily Weather History Graph

Search for Another Location

Airport or City:

Trip Planner

Search our weather history database for the weather conditions in past years. The results will help you decide how hot, cold, wet, or windy it might be!

Date:

Astronomy

Jul. 22, 2014 Rise Set
Actual Time 6:05 AM PDT 8:21 PM PDT
Civil Twilight 5:36 AM PDT 8:50 PM PDT
Nautical Twilight 5:00 AM PDT 9:26 PM PDT
Astronomical Twilight 4:21 AM PDT 10:05 PM PDT
Moon 2:41 AM PDT (7/22) 5:04 PM PDT (7/22)
Length of Visible Light 15h 14m
Length of Day
14h 15m
Waning Crescent, 15% of the Moon is Illuminated
Jul 22
Waning Crescent
Jul 26
New
Aug 3
First Quarter
Aug 10
Full
Aug 17
Last Quarter

Hourly Weather History & Observations

Time (PDT) Temp. Dew Point Humidity Pressure Visibility Wind Dir Wind Speed Gust Speed Precip Events Conditions
12:54 AM 61.0 °F 57.0 °F 87% 30.09 in 10.0 mi Calm Calm - N/A   Clear
1:54 AM 60.1 °F 55.9 °F 86% 30.09 in 10.0 mi SE 3.5 mph - N/A   Clear
2:54 AM 60.1 °F 55.9 °F 86% 30.09 in 10.0 mi Calm Calm - N/A   Mostly Cloudy
3:54 AM 60.1 °F 55.9 °F 86% 30.09 in 10.0 mi Calm Calm - N/A   Overcast
4:38 AM 60.8 °F 55.4 °F 82% 30.05 in 10.0 mi Calm Calm - N/A   Scattered Clouds
4:54 AM 60.1 °F 55.9 °F 86% 30.09 in 10.0 mi Calm Calm - N/A   Clear
5:54 AM 59.0 °F 55.9 °F 90% 30.09 in 10.0 mi Calm Calm - N/A   Partly Cloudy
6:54 AM 61.0 °F 55.9 °F 83% 30.11 in 10.0 mi Calm Calm - N/A   Mostly Cloudy
7:54 AM 64.0 °F 57.9 °F 80% 30.12 in 10.0 mi Calm Calm - N/A   Overcast
8:33 AM 64.4 °F 57.2 °F 77% 30.09 in 10.0 mi WSW 5.8 mph - N/A   Scattered Clouds
8:49 AM 64.4 °F 57.2 °F 77% 30.10 in 10.0 mi WSW 4.6 mph - N/A   Mostly Cloudy
8:54 AM 64.9 °F 57.0 °F 75% 30.13 in 10.0 mi WSW 4.6 mph - N/A   Mostly Cloudy
10:54 AM 68.0 °F 55.9 °F 65% 30.14 in 10.0 mi WSW 8.1 mph 16.1 mph N/A   Overcast
11:54 AM 71.1 °F 55.9 °F 59% 30.14 in 10.0 mi South 10.4 mph - N/A   Overcast
12:49 PM 71.6 °F 55.4 °F 57% 30.10 in 10.0 mi WSW 13.8 mph 19.6 mph N/A   Partly Cloudy
12:54 PM 73.0 °F 55.0 °F 53% 30.14 in 10.0 mi SW 16.1 mph 20.7 mph N/A   Partly Cloudy
1:54 PM 73.0 °F 54.0 °F 51% 30.14 in 10.0 mi WSW 13.8 mph 23.0 mph N/A   Clear
2:54 PM 73.0 °F 54.0 °F 51% 30.14 in 10.0 mi WSW 12.7 mph 20.7 mph N/A   Clear
3:54 PM 72.0 °F 55.0 °F 55% 30.14 in 10.0 mi SW 15.0 mph 23.0 mph N/A   Clear
4:54 PM 71.1 °F 55.9 °F 59% 30.13 in 10.0 mi WSW 15.0 mph 21.9 mph N/A   Scattered Clouds
5:02 PM 71.6 °F 57.2 °F 60% 30.10 in 10.0 mi WSW 17.3 mph - N/A   Mostly Cloudy
5:24 PM 69.8 °F 57.2 °F 64% 30.10 in 10.0 mi SW 13.8 mph - N/A   Scattered Clouds
5:54 PM 69.1 °F 57.0 °F 65% 30.13 in 10.0 mi SW 9.2 mph 17.3 mph N/A   Scattered Clouds
7:54 PM 66.0 °F 57.0 °F 73% 30.13 in 10.0 mi SW 10.4 mph - N/A   Clear
8:54 PM 64.0 °F 57.9 °F 80% 30.14 in 10.0 mi SSW 3.5 mph - N/A   Clear
9:54 PM 63.0 °F 55.9 °F 78% 30.16 in 10.0 mi East 4.6 mph - N/A   Clear
10:54 PM 62.1 °F 55.0 °F 78% 30.17 in 10.0 mi ESE 3.5 mph - N/A   Clear
11:54 PM 57.9 °F 53.1 °F 84% 30.17 in 10.0 mi East 4.6 mph - N/A   Clear